User: anonymous
Location: Toronto
(43.6672°N, 79.4170°W)
Time: 11:47:52
(UTC-04:00)
Language:

ISS - Orbit

View from above orbital plane
View from above orbital plane
View from above satellite
View from above satellite

Ground track
Ground track

The orbit data is extracted from the following two-line orbital elements,

1 25544U 98067A   14262.55373843  .00019078  00000-0  33599-3 0  1116
2 25544 051.6462 351.8639 0002409 113.0549 073.1499 15.50457578905968
Epoch (UTC): 19 September 2014 13:17:23
Eccentricity: 0.0002409
inclination: 51.6462°
perigee height: 414 km
apogee height: 417 km
right ascension of ascending node: 351.8639°
argument of perigee: 113.0549°
revolutions per day: 15.50457578
mean anomaly at epoch: 73.1499°
orbit number at epoch: 90596

The dashed part of the orbit path shows where the satellite is in the earth's shadow,  

DLR